Orbital Elements at Epoch 2459000.5 (2020-May-31.0) TDB
Reference: JPL 17 (heliocentric ecliptic J2000)
Element | Value | Uncertainty (1-sigma) | Units |
e | .1553873144428499 | 4.4658e-08 | |
a | 3.066888018686521 | 3.9793e-08 | au |
q | 2.59033252576587 | 1.4085e-07 | au |
i | 6.583863976149222 | 5.2612e-06 | deg |
node | 50.36244149879461 | 5.7246e-05 | deg |
peri | 18.16188633018377 | 6.2188e-05 | deg |
M | 41.3528675815229 | 2.6237e-05 | deg |
tp | 2458775.154735971013 (2019-Oct-18.65473597) | 0.00014047 | TDB |
period | 1961.757425661161 5.37 | 3.8181e-05 1.045e-07 | d yr |
n | .1835089268892004 | 3.5715e-09 | deg/d |
Q | 3.543443511607172 | 4.5976e-08 | au |
|
| | Orbit Determination Parameters
Additional Information
|